Regional Weather Roundup
Issued by NWS Kansas City/Pleasant Hill, MO

Home | Current Version | Previous Version | Text Only | Print | Product List | Glossary On
Versions: 1 2 3 4 5 6 7 8 9 10 11 12 13 14 15 16 17 18 19 20 21 22 23 24 25 26 27
000
ASUS43 KEAX 310810
RWREAX

WEATHER ROUNDUP FOR EASTERN KANSAS AND NORTHWEST MISSOURI
NATIONAL WEATHER SERVICE KANSAS CITY/PLEASANT HILL MO
300 AM CDT TUE MAY 31 2016

KSZ040-057-103>105-MOZ028-029-037-043-310900-
...KANSAS CITY METROPOLITAN AREA...

CITY           SKY/WX    TMP DP  RH WIND       PRES   REMARKS
K.C. INTL      CLOUDY    60  57  89 S8        29.94F
K.C. DOWNTOWN  CLEAR     65  59  81 SW5       29.93F
LEES SUMMIT    CLEAR     63  59  87 SE3       29.95F
OLATHE - IXD   CLOUDY    61  60  97 CALM      29.95F
OLATHE - OJC   CLEAR     61  59  93 CALM      29.95S
LAWRENCE       CLOUDY    61  60  97 CALM      29.94S

$$

MOZ001>008-011>017-020>025-030>033-038>040-044>046-053-054-310900-
...NORTHERN AND CENTRAL MISSOURI...

CITY           SKY/WX    TMP DP  RH WIND       PRES   REMARKS
ST. JOSEPH     CLOUDY    63  60  90 S7        29.94S
MOSBY          MOSUNNY   61  61 100 CALM      29.95S
WARRENSBURG    CLOUDY    61  61 100 NE3       29.94F
WHITEMAN AFB   CLOUDY    62  62 100 E3        29.94F
CLINTON        CLOUDY    63  63 100 CALM      29.95F
SEDALIA        CLOUDY    65  62  90 CALM      29.97F
WARSAW         NOT AVBL
CHILLICOTHE      N/A     60  59  96 CALM      29.96F
KIRKSVILLE     CLOUDY    63  61  93 S5        29.98S

$$

MOZ041-047>049-056>058-063>065-088>090-097-310900-
...EASTERN AND SOUTHERN MISSOURI...

CITY           SKY/WX    TMP DP  RH WIND       PRES   REMARKS
ST. LOUIS INTL CLOUDY    71  61  70 CALM      29.98S
SPIRIT OF STL  CLOUDY    66  66 100 CALM      29.97S
COLUMBIA       LGT RAIN  64  62  93 SE3       29.99R
JEFFERSON CITY LGT RAIN  66  63  90 E3        29.99R
ROLLA          CLOUDY    64  61  90 CALM      29.97S
SPRINGFIELD    CLOUDY    65  61  87 SE8       29.94F
JOPLIN         CLEAR     65  63  93 SE6       29.92F
WEST PLAINS    CLOUDY    64  61  90 N3        29.99S

$$

IAZ060-094-KSZ022-034>040-054-083-096-NEZ052-066-093-310900-
...KANSAS...SOUTHEAST NEBRASKA AND IOWA...

CITY           SKY/WX    TMP DP  RH WIND       PRES   REMARKS
TOPEKA         CLOUDY    65  61  87 CALM      29.94S
MANHATTAN      CLOUDY    67  60  78 SW7       29.95R
EMPORIA        CLOUDY    61  59  93 CALM      29.94F
CHANUTE        CLOUDY    63  61  93 S3        29.92F
WICHITA        CLOUDY    65  62  90 SE6       29.92F
OMAHA          CLOUDY    70  61  73 S12       29.89R
LINCOLN        CLOUDY    68  56  65 NW7       29.90F
FALLS CITY     LGT RAIN  65  60  84 S7        29.91S
LAMONI         CLOUDY    61  58  90 S5        29.93F
DES MOINES     MOCLDY    69  59  70 SE7       29.92S

$$





USA.gov is the U.S. government's official web portal to all federal, state and local government web resources and services.